Temp
46 38 35 40 44 41 39 36 37 38 46 44 43 45 51 52 50 50 52 52 54 57 63 62 63 63 63 63 63 65 66 67 67 65 63 64 63 64 64 65 65 65 66 65
41 37 41 43 43 41 38 35 35 41 45 44 42 42 47 49 50 53 55 54 53 54 59 61 61 60 60 62 62 63 65 66 66 67 67 67 67 67 66 66 65 65 65 65
36 38 45 42 39 39 39 37 35 37 40 42 40 42 42 47 51 49 53 56 55 56 58 58 59 59 60 60 61 63 64 66 66 67 66 65 64 62 63 64 63 63 64 64
40 43 41 37 38 41 34 42 40 38 37 31 40 32 40 43 44 46 49 50 53 54 55 55 57 58 58 59 59 60 63 65 66 67 66 64 65 63 66 65 65 64 63 64
36 37 38 36 38 42 36 43 41 39 36 34 33 30 35 39 42 45 50 50 51 52 54 55 55 55 56 55 55 57 60 62 65 65 67 64 64 66 66 65 63 62 62 63
38 41 42 42 42 44 42 38 37 37 37 29 34 34 39 41 42 46 51 52 52 54 53 53 53 53 53 53 55 58 60 61 63 63 64 63 63 63 63 63 62 62 62 62
36 36 38 43 37 40 41 35 23 26 26 25 33 31 40 42 43 48 50 52 51 50 50 50 50 50 51 51 53 56 57 56 60 62 62 63 63 63 63 63 63 62 62 62
31 27 37 41 41 37 39 39 25 17 19 26 33 29 39 46 53 54 50 50 50 48 48 47 48 47 49 49 50 52 52 53 55 57 58 59 61 61 62 63 63 63 63 64
31 31 40 40 44 45 37 34 41 30 27 23 29 33 43 44 45 47 47 45 46 46 46 46 45 45 46 46 46 48 49 49 51 52 54 55 56 56 57 57 59 59 60 62
34 27 36 39 44 44 39 44 33 34 19 16 27 28 35 38 42 43 43 43 44 44 43 43 43 43 44 45 45 46 46 46 47 49 50 51 51 52 54 54 54 55 57 57
35 32 30 37 36 36 38 36 36 35 31 24 22 30 37 42 45 44 41 43 43 42 41 41 41 41 41 42 43 42 43 43 44 45 46 47 48 49 50 50 51 51 52 53
36 32 26 32 35 43 44 39 38 31 28 32 30 29 41 42 43 43 41 41 40 40 38 38 38 39 39 39 41 41 41 40 41 42 43 44 45 46 46 46 47 48 48 50
41 33 25 28 31 32 35 38 40 37 31 29 27 32 41 40 39 41 40 39 38 37 37 37 37 37 37 38 39 39 38 38 39 39 40 41 41 42 42 42 44 44 45 46
46 33 33 28 32 33 31 36 38 37 31 32 32 36 36 36 38 38 37 36 36 36 36 37 36 36 36 36 36 36 36 36 36 37 37 37 38 39 38 39 39 40 41 41
40 30 34 36 32 33 34 35 36 34 37 31 36 35 42 38 37 38 35 34 34 33 33 33 32 33 33 34 34 34 33 33 34 34 34 35 35 34 34 34 34 36 37 38
39 30 32 30 33 33 30 34 37 37 38 37 36 33 46 38 36 33 35 34 31 31 30 30 30 30 29 29 29 29 29 30 31 31 30 30 29 29 29 30 31 32 33 34
34 32 29 26 32 32 26 33 34 36 39 39 32 41 37 33 39 34 32 32 30 29 28 27 26 27 27 26 27 25 26 28 27 28 27 26 26 26 27 27 28 28 29 31
34 32 31 24 28 19 33 35 41 37 39 42 41 38 39 36 26 25 27 28 28 27 26 25 24 24 25 25 24 25 26 25 25 24 24 24 24 24 24 24 25 25 26 26
42 35 29 25 25 26 31 30 32 33 36 39 41 27 24 24 26 20 24 25 24 24 24 24 24 24 23 22 23 24 23 23 23 22 22 22 22 22 22 22 23 24 24 24
39 39 31 23 21 20 29 29 30 39 30 31 35 27 24 28 28 23 22 24 23 23 23 22 22 23 22 22 22 23 21 21 20 21 21 22 22 21 20 21 22 23 23 24
29 31 27 24 24 25 29 29 30 26 30 25 28 29 27 27 22 21 22 21 22 22 22 20 21 20 20 21 21 21 20 18 20 20 20 20 20 20 21 21 21 21 21 22
29 28 27 25 22 20 24 27 30 29 22 23 22 22 20 18 19 19 20 19 19 18 19 19 18 19 20 20 19 18 17 19 18 17 16 16 17 18 20 18 18 19 19 18
26 32 27 29 27 19 19 20 23 24 21 20 20 21 20 17 16 17 16 17 17 17 18 17 16 17 17 17 18 15 15 16 15 12 11 13 15 16 17 16 16 15 17 16
24 26 20 21 18 17 17 18 20 21 20 20 20 19 19 15 17 16 17 17 15 15 14 15 14 14 13 14 14 14 14 13 10 9 11 12 12 12 14 16 16 14 14 15
25 26 19 14 15 16 17 18 18 18 19 18 18 19 18 18 17 16 14 13 13 13 12 13 12 12 11 11 11 11 11 10 9 8 9 10 11 10 11 13 14 15 17 18
19 24 26 26 21 22 19 19 19 17 16 16 16 15 17 17 14 14 12 12 11 10 10 10 9 9 8 7 7 7 6 7 5 4 6 7 7 8 9 10 10 16 18 20
MSLP
1020.20 1020.67 1019.82 1020.51 1020.83 1021.22 1021.49 1021.72 1021.68 1021.30 1020.71 1020.76 1020.42 1019.68 1018.63 1018.78 1018.94 1018.80 1018.51 1018.43 1018.09 1017.63 1016.59 1016.43 1016.18 1015.96 1016.01 1016.12 1016.12 1016.14 1016.42 1016.44 1017.00 1017.39 1017.75 1018.04 1018.01 1018.54 1018.92 1019.19 1019.43 1019.70 1019.89 1020.08
1020.44 1019.05 1020.34 1020.77 1021.16 1021.48 1021.74 1021.95 1021.97 1021.68 1021.05 1020.89 1020.44 1019.48 1018.33 1018.39 1017.99 1017.46 1017.34 1017.48 1017.37 1017.41 1016.46 1015.88 1015.70 1015.70 1015.77 1015.63 1015.60 1015.74 1015.69 1015.88 1016.14 1016.41 1016.57 1016.92 1017.18 1017.33 1017.60 1018.04 1018.46 1018.84 1019.29 1019.50
1019.21 1019.23 1019.53 1020.45 1021.01 1021.44 1021.52 1021.58 1021.90 1021.75 1021.28 1020.80 1020.27 1018.01 1017.52 1016.34 1016.58 1016.77 1016.71 1016.55 1016.60 1016.40 1016.07 1015.82 1015.60 1015.51 1015.36 1015.25 1014.94 1014.90 1014.81 1014.91 1015.10 1015.39 1016.07 1016.56 1016.94 1017.07 1017.21 1017.34 1017.77 1018.13 1018.67 1019.12
1019.57 1019.18 1019.46 1019.97 1020.11 1020.75 1021.17 1021.05 1021.71 1021.86 1021.99 1021.77 1020.89 1018.04 1016.90 1016.36 1016.41 1016.44 1016.26 1016.31 1015.96 1015.80 1015.91 1015.80 1015.56 1015.27 1015.14 1014.74 1014.51 1014.25 1014.05 1014.10 1014.20 1014.69 1015.28 1015.62 1016.00 1016.22 1016.29 1016.81 1017.15 1017.62 1018.03 1018.26
1018.20 1018.74 1019.40 1019.79 1019.41 1020.37 1020.38 1020.42 1021.32 1021.90 1022.25 1022.31 1021.47 1021.18 1016.67 1016.53 1016.17 1016.14 1015.84 1015.73 1015.68 1015.84 1015.78 1015.73 1015.81 1015.59 1015.24 1014.78 1014.21 1013.86 1013.68 1013.70 1013.95 1014.36 1014.63 1015.13 1015.52 1015.68 1016.09 1016.43 1016.80 1017.18 1017.46 1017.56
1017.85 1017.94 1018.33 1018.12 1019.07 1019.60 1020.25 1020.96 1021.60 1022.02 1022.42 1022.07 1020.48 1021.03 1015.06 1016.29 1015.69 1015.51 1015.23 1015.27 1015.49 1015.69 1016.08 1016.22 1016.09 1015.93 1015.64 1015.09 1014.40 1013.96 1013.90 1013.99 1014.11 1014.31 1014.61 1014.87 1015.23 1015.57 1015.88 1016.16 1016.42 1016.77 1016.95 1017.13
1017.74 1017.87 1017.78 1017.81 1018.74 1019.33 1019.65 1020.52 1021.83 1022.26 1022.03 1020.68 1020.05 1020.42 1014.88 1015.28 1014.99 1014.87 1015.12 1015.01 1015.68 1015.99 1016.40 1016.79 1016.73 1016.52 1016.27 1015.77 1015.39 1015.00 1014.77 1014.83 1014.57 1014.65 1014.92 1015.11 1015.29 1015.51 1015.63 1015.77 1015.97 1016.23 1016.43 1016.56
1016.93 1017.45 1017.06 1017.05 1017.16 1017.80 1018.67 1019.18 1019.78 1020.70 1020.80 1020.39 1020.46 1018.50 1014.70 1014.50 1014.33 1014.56 1014.85 1015.03 1015.74 1016.41 1016.92 1017.34 1017.56 1017.51 1017.21 1016.97 1016.65 1016.33 1016.06 1015.99 1015.86 1015.74 1015.83 1015.79 1015.63 1015.61 1015.69 1015.82 1015.90 1015.97 1016.10 1016.00
1015.95 1016.02 1015.41 1015.92 1016.49 1016.73 1017.56 1017.78 1018.38 1019.63 1020.63 1020.34 1018.90 1017.09 1015.21 1014.44 1014.70 1014.63 1014.96 1015.63 1016.03 1016.87 1017.39 1018.02 1018.52 1018.41 1018.42 1018.13 1017.98 1017.75 1017.55 1017.35 1017.18 1017.14 1017.00 1016.95 1016.86 1016.74 1016.74 1016.69 1016.57 1016.68 1016.52 1016.28
1014.72 1015.77 1015.39 1016.18 1016.16 1015.79 1015.79 1016.92 1018.20 1018.79 1019.39 1019.40 1018.05 1017.08 1014.96 1014.39 1014.29 1014.69 1015.47 1016.10 1016.89 1017.55 1018.12 1018.83 1019.30 1019.41 1019.46 1019.32 1019.20 1018.96 1018.80 1018.78 1018.71 1018.42 1018.27 1018.18 1018.08 1017.94 1017.77 1017.64 1017.50 1017.38 1017.23 1016.98
1014.22 1014.50 1015.86 1015.52 1014.72 1014.48 1015.56 1015.90 1016.44 1016.92 1017.56 1017.25 1017.10 1015.34 1014.14 1013.93 1014.06 1014.49 1015.43 1016.25 1017.06 1017.92 1018.80 1019.45 1020.00 1020.23 1020.30 1020.31 1020.16 1020.01 1019.92 1019.88 1019.68 1019.54 1019.46 1019.21 1019.05 1018.87 1018.69 1018.57 1018.49 1018.31 1017.93 1017.55
1013.08 1013.96 1015.16 1014.56 1014.14 1013.92 1013.73 1013.93 1014.91 1015.57 1016.06 1016.13 1015.90 1014.27 1013.36 1013.63 1013.94 1014.45 1015.69 1016.87 1017.83 1018.65 1019.51 1020.10 1020.53 1020.83 1020.93 1021.05 1020.98 1021.00 1021.04 1020.94 1020.97 1020.73 1020.38 1020.16 1019.94 1019.64 1019.42 1019.29 1019.15 1018.84 1018.52 1018.11
1012.17 1012.97 1014.14 1014.78 1014.66 1014.21 1013.70 1013.81 1014.39 1014.83 1015.32 1015.28 1015.16 1013.78 1013.66 1014.12 1014.68 1015.18 1016.26 1017.66 1018.36 1019.14 1020.01 1020.55 1020.97 1021.28 1021.50 1021.66 1021.78 1022.00 1022.05 1021.92 1021.95 1021.74 1021.17 1020.93 1020.66 1020.41 1020.19 1020.06 1019.77 1019.45 1018.92 1018.39
1011.14 1011.54 1011.88 1011.57 1011.22 1012.30 1013.30 1013.04 1013.46 1014.01 1014.53 1013.85 1013.82 1013.58 1013.77 1014.58 1015.23 1016.21 1017.33 1018.30 1019.14 1019.56 1020.18 1020.93 1021.50 1021.87 1022.05 1022.23 1022.51 1022.70 1022.85 1022.93 1022.54 1022.86 1022.15 1021.59 1021.56 1021.27 1020.94 1020.73 1020.23 1019.80 1019.42 1018.68
1011.01 1010.80 1011.82 1011.54 1011.69 1011.48 1011.58 1012.06 1012.54 1013.27 1012.77 1013.00 1012.21 1013.37 1012.86 1014.26 1015.48 1016.30 1017.44 1018.80 1019.78 1020.52 1020.93 1021.50 1022.05 1022.48 1022.90 1023.17 1023.31 1022.89 1022.88 1023.93 1023.56 1023.65 1023.13 1022.07 1022.57 1022.36 1021.62 1021.08 1020.66 1020.07 1019.58 1019.06
1010.55 1010.83 1011.36 1011.59 1011.74 1011.58 1011.72 1011.65 1011.93 1012.12 1011.57 1012.21 1012.35 1012.99 1012.27 1014.07 1015.57 1017.02 1017.94 1018.97 1019.96 1021.02 1021.77 1022.49 1022.94 1023.40 1023.72 1024.02 1023.90 1024.17 1024.64 1024.52 1023.91 1023.67 1023.85 1023.03 1023.08 1023.39 1022.43 1021.76 1021.14 1020.56 1019.90 1019.35
1010.01 1010.66 1011.11 1010.84 1011.02 1011.77 1011.51 1010.88 1010.19 1010.76 1010.82 1010.89 1011.99 1010.96 1013.03 1014.78 1015.56 1017.03 1018.14 1019.16 1020.30 1021.52 1022.48 1023.19 1023.80 1024.32 1024.61 1024.77 1024.93 1024.95 1024.84 1024.65 1024.51 1024.39 1024.37 1024.04 1023.96 1024.17 1023.14 1022.04 1021.29 1020.78 1020.28 1019.45
1008.82 1010.06 1010.72 1010.40 1011.17 1010.75 1008.93 1008.78 1009.47 1009.72 1009.69 1010.50 1011.29 1011.87 1013.12 1014.70 1017.06 1018.22 1019.20 1020.02 1021.25 1022.35 1023.17 1023.87 1024.57 1025.03 1025.28 1025.51 1025.53 1025.40 1025.29 1025.16 1024.86 1024.86 1025.04 1025.16 1024.90 1023.85 1022.99 1022.46 1021.76 1021.47 1020.60 1020.09
1007.54 1008.54 1009.50 1009.70 1010.01 1010.12 1009.39 1009.04 1009.01 1009.60 1009.22 1010.21 1010.96 1012.95 1014.83 1016.14 1017.79 1019.91 1020.71 1021.38 1022.36 1023.15 1023.89 1024.51 1025.11 1025.51 1025.85 1026.01 1026.10 1025.82 1025.64 1025.57 1025.50 1025.26 1025.02 1024.80 1024.24 1023.74 1023.36 1022.70 1022.17 1021.52 1021.07 1020.32
1007.41 1007.95 1009.12 1009.80 1009.76 1009.67 1008.14 1008.70 1008.84 1009.76 1010.31 1010.11 1010.91 1013.03 1015.18 1016.94 1018.85 1019.79 1021.27 1022.19 1023.07 1023.93 1024.46 1025.07 1025.52 1025.88 1026.20 1026.30 1026.17 1025.99 1026.05 1026.07 1025.77 1025.58 1025.31 1024.98 1024.59 1024.28 1023.75 1023.22 1022.53 1021.78 1020.90 1019.77
1007.06 1007.84 1008.28 1009.50 1010.24 1010.11 1009.45 1010.12 1010.32 1011.70 1011.24 1011.38 1012.16 1013.37 1015.22 1017.07 1018.72 1019.68 1021.44 1022.73 1023.62 1024.36 1024.98 1025.62 1025.84 1026.03 1026.26 1026.41 1026.38 1026.33 1026.47 1026.36 1026.20 1025.97 1025.73 1025.34 1025.00 1024.46 1023.75 1023.10 1022.36 1021.44 1020.40 1019.46
1006.04 1007.24 1008.46 1010.09 1011.26 1011.78 1011.16 1011.68 1012.00 1011.64 1012.72 1013.46 1014.36 1015.07 1016.53 1018.17 1019.87 1020.97 1022.11 1023.24 1024.13 1024.75 1025.28 1025.70 1026.05 1026.30 1026.70 1026.84 1026.79 1026.92 1026.95 1026.87 1026.63 1026.40 1026.04 1025.48 1024.85 1024.30 1023.57 1022.95 1022.15 1021.43 1020.61 1019.55
1007.03 1006.80 1007.99 1010.17 1011.20 1011.90 1012.84 1012.93 1013.11 1013.44 1013.73 1014.87 1015.88 1017.00 1017.58 1019.05 1020.56 1021.82 1022.89 1023.82 1024.60 1025.15 1025.65 1026.13 1026.31 1026.62 1027.03 1027.37 1027.45 1027.44 1027.40 1027.10 1026.81 1026.60 1026.00 1025.31 1024.71 1024.18 1023.67 1022.93 1022.17 1021.55 1020.75 1019.79
1008.26 1008.41 1009.13 1011.16 1012.41 1013.28 1014.13 1014.59 1014.97 1015.12 1015.63 1016.34 1017.36 1018.40 1019.08 1020.00 1021.43 1022.52 1023.48 1024.26 1025.06 1025.66 1026.14 1026.62 1026.93 1027.34 1027.74 1027.95 1027.89 1027.89 1027.69 1027.46 1027.16 1026.63 1025.89 1025.18 1024.56 1023.95 1023.40 1022.81 1022.13 1021.32 1020.54 1019.53
1008.99 1009.35 1010.93 1012.59 1013.88 1014.73 1015.17 1015.29 1015.79 1016.66 1016.99 1017.62 1018.78 1019.36 1020.03 1020.84 1022.00 1022.94 1023.97 1024.91 1025.64 1026.31 1026.87 1027.29 1027.57 1027.70 1028.03 1028.25 1028.14 1028.10 1027.95 1027.64 1027.14 1026.57 1025.90 1025.11 1024.51 1023.93 1023.11 1022.60 1021.92 1021.08 1020.47 1019.80
1009.99 1010.52 1011.67 1011.44 1011.32 1011.87 1013.00 1014.97 1015.83 1016.31 1017.80 1018.50 1019.44 1020.21 1021.07 1021.56 1022.50 1023.79 1025.00 1025.73 1026.41 1026.96 1027.44 1027.83 1028.17 1028.38 1028.46 1028.46 1028.35 1028.36 1028.29 1028.06 1027.77 1027.07 1026.23 1025.45 1024.62 1023.85 1023.05 1022.09 1021.05 1021.01 1020.04 1019.12
Wind_Speed
7 4 15 12 13 3 6 5 5 3 3 4 9 15 16 8 6 10 12 10 13 14 15 9 9 9 8 8 10 11 10 12 9 7 8 8 10 8 8 8 12 12 11 13
5 21 6 7 6 7 3 3 4 4 5 6 6 14 16 9 10 14 16 13 13 10 14 14 10 7 6 8 6 7 11 11 11 9 8 6 7 8 9 8 10 12 12 12
11 2 16 11 9 12 11 14 4 3 2 2 5 14 11 9 16 7 10 12 9 14 15 9 8 6 6 7 8 8 12 13 13 14 6 4 3 1 5 8 8 9 11 10
11 5 9 2 14 14 14 8 7 3 4 5 2 14 5 3 4 5 8 8 13 13 7 6 9 8 6 8 7 8 9 12 12 13 10 12 9 9 6 5 5 7 10 12
8 10 13 10 8 13 6 9 13 6 5 3 4 5 4 1 4 4 6 8 7 7 7 6 5 5 6 7 7 6 6 8 8 10 12 8 10 6 3 3 6 7 8 11
7 3 10 12 7 17 8 7 5 3 5 9 9 10 14 8 8 5 5 5 5 5 2 5 4 5 7 8 8 5 1 1 4 7 9 9 10 7 4 4 4 5 6 7
4 8 2 6 7 4 8 8 3 5 7 11 9 8 24 3 1 7 7 8 5 5 6 5 7 7 9 12 13 11 12 12 7 2 3 5 6 6 7 6 5 5 5 6
14 8 12 6 8 8 16 13 8 10 7 4 6 13 13 6 14 12 7 8 8 7 6 6 6 8 11 13 14 14 15 15 14 14 13 11 10 2 1 2 3 3 4 5
13 11 2 6 8 15 10 19 7 4 2 3 6 8 9 8 7 6 7 6 8 7 7 8 8 9 10 13 14 13 14 15 15 14 12 13 12 12 10 10 8 6 7 6
7 2 5 7 6 12 8 11 10 10 7 7 5 5 11 2 8 6 7 7 7 7 9 9 8 9 9 10 10 13 13 14 13 13 12 11 11 11 10 10 11 11 9 9
8 4 1 11 17 18 8 10 9 5 8 8 6 9 8 12 12 8 9 9 10 10 10 9 8 8 9 9 11 11 13 13 13 12 10 11 11 11 10 10 10 10 10 11
11 6 6 16 3 12 20 17 15 8 10 10 2 7 1 5 6 7 7 10 10 11 10 8 8 8 9 10 10 11 12 12 11 10 9 10 10 10 10 11 11 10 11 10
16 7 5 3 0 1 14 12 13 6 2 9 11 12 3 4 5 8 14 9 11 11 9 8 7 8 8 9 10 11 11 11 11 10 10 10 10 10 11 11 12 12 12 11
21 7 17 15 13 9 11 21 20 19 13 18 14 18 6 6 9 8 8 8 8 9 9 8 7 8 9 10 9 9 11 11 12 12 10 10 10 11 11 12 12 12 12 12
11 12 17 20 3 5 9 19 26 21 26 19 25 15 22 10 11 12 11 10 10 8 8 8 8 7 8 8 8 10 13 12 10 10 10 11 12 13 12 12 13 12 12 12
7 4 11 16 9 7 4 12 16 25 29 21 14 8 17 6 9 8 12 12 11 9 8 7 7 7 8 8 10 10 8 9 11 11 11 12 12 13 13 12 12 12 12 13
10 9 8 17 17 12 9 19 20 18 23 26 20 32 7 5 18 15 12 10 12 10 8 7 7 7 7 8 8 8 8 9 8 9 11 12 12 13 13 13 13 13 14 14
17 15 7 5 11 15 12 7 22 21 18 21 16 8 12 9 7 9 6 9 11 9 7 7 6 6 7 7 8 7 8 8 9 9 9 9 10 12 13 13 14 13 12 13
20 17 9 7 12 3 5 8 11 15 24 14 26 8 7 12 8 2 5 6 9 8 7 7 6 5 6 7 7 7 8 8 9 11 12 13 13 14 14 14 14 13 12 13
14 16 11 2 5 10 7 4 2 7 15 10 10 15 15 14 10 5 9 10 10 9 7 6 6 6 6 8 8 8 8 9 10 11 12 12 13 13 13 13 13 12 12 14
10 11 16 7 4 6 2 4 0 11 9 3 4 11 16 10 1 16 13 10 9 8 8 7 6 7 8 8 8 8 8 10 11 11 11 12 12 13 12 13 13 12 14 14
13 10 8 3 4 9 2 4 11 3 3 6 4 6 13 16 13 13 12 12 10 8 8 8 6 7 7 8 8 7 7 9 10 11 12 12 12 11 11 13 12 13 13 14
1 6 9 7 6 3 3 5 3 2 6 5 7 9 16 16 13 12 11 10 9 8 7 6 6 6 6 7 6 6 8 9 11 11 10 10 11 11 12 12 12 10 11 11
2 3 5 5 2 3 4 6 6 7 10 10 12 11 12 17 14 14 11 10 8 7 6 4 4 4 3 4 5 6 8 9 8 9 11 10 10 11 11 9 9 9 9 11
2 4 6 3 3 4 4 6 12 13 13 15 11 12 13 14 13 12 11 9 7 6 4 3 3 3 4 6 6 6 8 10 10 11 12 11 9 11 11 10 10 10 11 13
5 7 6 6 12 3 7 17 17 17 15 14 15 13 11 12 13 11 8 6 5 4 3 3 3 4 6 7 7 7 7 9 9 11 9 8 9 9 10 11 11 16 24 26
Wind_Direction
188 175 211 189 199 149 165 176 186 214 230 184 231 249 251 240 235 240 243 241 253 263 273 255 257 247 244 243 230 222 221 218 202 197 199 214 218 212 215 216 216 214 214 207
185 231 169 174 193 207 171 178 220 271 230 187 253 254 264 216 228 230 240 240 240 245 267 269 265 264 249 254 234 221 222 216 206 207 208 205 196 217 215 210 214 215 214 211
194 235 166 169 180 198 219 223 168 201 327 248 304 269 225 241 234 229 243 247 250 240 255 269 286 273 267 258 249 234 226 217 208 206 191 183 174 118 189 210 213 211 212 217
230 201 168 147 202 184 220 190 168 162 67 245 21 281 252 274 219 208 238 232 245 254 260 258 268 286 295 278 268 253 237 219 214 191 191 200 209 222 223 217 197 197 202 215
207 166 177 204 200 182 217 153 180 155 183 12 214 297 258 207 275 235 252 244 247 254 248 279 324 333 322 323 294 260 239 217 202 190 200 196 212 227 201 183 182 198 202 217
166 169 182 196 157 178 142 87 67 136 157 246 214 198 262 214 196 215 222 246 256 251 66 70 37 12 2 359 0 12 22 280 190 181 194 191 207 202 185 194 204 204 209 216
185 221 215 146 126 136 158 138 143 207 207 233 156 179 250 274 111 181 204 240 273 100 102 68 43 34 31 33 35 43 50 36 32 111 194 218 214 195 212 216 218 213 221 223
195 214 188 188 178 171 190 184 163 193 205 200 142 227 240 208 222 240 235 262 161 129 103 84 51 49 51 43 42 47 49 48 42 48 48 45 39 29 334 283 265 252 233 241
193 228 218 179 167 157 189 211 171 82 48 80 216 285 295 196 223 219 219 174 159 135 112 94 61 55 51 49 43 44 46 47 42 40 43 41 37 38 36 36 39 29 22 5
195 157 191 178 144 218 170 159 186 214 200 227 245 258 240 210 240 230 188 177 153 118 101 87 69 58 52 49 46 45 43 42 37 37 35 36 32 30 30 29 26 17 10 2
161 136 278 144 205 186 161 191 205 172 199 198 231 243 202 226 226 208 189 175 140 122 111 96 78 61 52 47 43 43 38 34 30 27 24 28 24 23 25 25 15 6 356 353
188 139 163 202 308 210 208 201 189 192 202 232 223 255 250 273 218 181 151 122 115 109 103 92 81 70 56 45 41 42 35 32 19 12 16 21 17 17 18 11 2 355 348 343
173 196 154 133 103 281 210 219 206 212 74 196 204 237 101 81 120 130 131 130 125 119 109 99 82 68 58 49 42 36 28 23 12 2 10 14 12 12 10 357 349 344 337 331
174 185 213 212 211 132 195 209 209 208 226 232 223 242 222 190 169 137 124 125 127 122 116 106 84 68 57 44 35 37 21 11 14 356 2 12 1 5 356 344 342 336 331 325
191 209 206 232 182 173 195 201 209 208 221 215 234 222 244 188 185 168 147 134 132 115 99 89 78 60 43 35 26 28 25 1 5 353 358 21 1 347 346 343 337 333 328 325
196 219 180 234 249 211 210 208 203 212 223 226 244 233 246 147 121 150 164 153 142 131 107 92 75 62 43 27 24 18 6 358 2 5 6 2 357 340 343 340 335 329 329 326
192 194 190 221 208 216 232 216 208 212 220 212 216 232 140 191 176 174 162 150 139 133 122 94 69 47 39 28 20 10 360 1 8 11 3 359 351 334 338 339 337 336 331 327
187 196 194 219 150 217 236 209 206 210 219 220 229 250 185 163 103 87 72 130 128 127 110 79 60 44 35 31 17 5 12 9 14 10 358 346 336 341 343 340 338 329 327 324
198 189 216 199 202 316 265 195 175 186 234 204 214 140 116 121 94 63 86 85 107 100 89 78 59 55 45 32 15 14 22 16 6 2 355 350 348 344 341 338 334 328 319 314
184 199 210 161 188 202 248 170 99 107 252 187 186 161 155 151 181 166 145 122 106 94 83 74 62 70 52 30 15 23 21 11 5 355 350 347 344 338 332 328 325 318 318 316
185 191 206 180 202 280 157 152 256 146 240 106 145 156 156 167 29 121 116 105 100 99 91 73 64 66 44 27 14 20 13 4 350 344 341 339 335 330 326 324 325 323 321 319
175 169 198 129 143 252 159 100 184 152 58 111 91 110 112 119 118 114 118 119 113 105 88 71 68 59 44 26 17 10 3 346 340 339 333 330 330 330 329 327 321 322 320 318
219 206 164 194 202 42 36 44 12 2 134 118 107 111 125 124 123 123 120 117 109 99 87 70 64 58 45 20 8 355 344 339 336 331 325 324 324 323 325 321 316 314 314 310
319 326 100 124 181 145 119 78 64 75 95 101 106 110 119 121 126 123 121 117 107 91 81 71 72 69 34 7 353 347 338 333 328 320 323 323 321 321 318 315 312 311 312 312
174 115 130 67 119 106 217 159 135 118 112 111 108 114 116 121 122 124 121 116 109 108 92 74 47 24 351 336 336 338 343 338 337 332 326 325 322 317 316 312 311 310 307 304
190 160 185 224 175 160 161 165 153 134 137 130 127 115 109 120 120 117 109 108 113 108 71 36 5 341 329 324 333 336 335 336 332 322 318 317 317 319 313 313 308 305 307 307